Time,TemperatureF,DewpointF,PressureIn,WindDirection,WindDirectionDegrees,WindSpeedMPH,WindSpeedGustMPH,Humidity,HourlyPrecipIn,Conditions,Clouds,dailyrainin,SoftwareType,DateUTC
2013-01-19 00:02:00,28.2,14.5,29.80,SSW,200,0.0,0.0,56,0.00,CLR,,0.00,WeatherDisplay:10.37,2013-01-19 06:02:00,
2013-01-19 00:07:00,28.2,14.5,29.80,SSW,200,0.0,0.0,56,0.00,CLR,,0.00,WeatherDisplay:10.37,2013-01-19 06:07:00,
2013-01-19 00:12:00,28.4,15.1,29.80,SSW,200,0.0,0.0,57,0.00,CLR,,0.00,WeatherDisplay:10.37,2013-01-19 06:12:00,
2013-01-19 00:17:00,28.4,15.1,29.80,SSW,195,2.3,2.3,57,0.00,CLR,,0.00,WeatherDisplay:10.37,2013-01-19 06:17:00,
2013-01-19 00:23:00,28.4,15.1,29.80,SSW,195,2.3,2.3,57,0.00,CLR,,0.00,WeatherDisplay:10.37,2013-01-19 06:23:00,
2013-01-19 00:28:00,28.4,15.1,29.80,SSW,195,1.1,1.1,57,0.00,CLR,,0.00,WeatherDisplay:10.37,2013-01-19 06:28:00,
2013-01-19 00:33:00,28.6,15.3,29.80,SSW,195,0.0,1.6,57,0.00,CLR,,0.00,WeatherDisplay:10.37,2013-01-19 06:33:00,
2013-01-19 00:39:00,28.6,15.3,29.80,SSW,195,0.0,1.0,57,0.00,CLR,,0.00,WeatherDisplay:10.37,2013-01-19 06:39:00,
2013-01-19 00:44:00,28.6,15.3,29.80,SSW,195,0.0,0.6,57,0.00,CLR,,0.00,WeatherDisplay:10.37,2013-01-19 06:44:00,
2013-01-19 00:49:00,83.5,66.6,29.80,South,190,0.0,0.0,57,0.00,CLR,,0.00,WeatherDisplay:10.37,2013-01-19 06:49:00,
2013-01-19 00:54:00,28.4,15.1,29.80,South,190,0.0,0.0,57,0.00,CLR,,0.00,WeatherDisplay:10.37,2013-01-19 06:54:00,
2013-01-19 01:00:00,28.4,15.1,29.80,South,190,0.0,0.0,57,0.00,CLR,,0.00,WeatherDisplay:10.37,2013-01-19 07:00:00,
2013-01-19 01:05:00,28.2,14.9,29.80,South,190,0.0,0.0,57,0.00,CLR,,0.00,WeatherDisplay:10.37,2013-01-19 07:05:00,
2013-01-19 01:10:00,28.4,15.1,29.77,South,190,3.5,3.5,57,0.00,CLR,,0.00,WeatherDisplay:10.37,2013-01-19 07:10:00,
2013-01-19 01:15:00,28.4,15.5,29.77,South,190,2.3,2.3,58,0.00,CLR,,0.00,WeatherDisplay:10.37,2013-01-19 07:15:00,
2013-01-19 01:21:00,28.4,15.5,29.77,South,190,2.3,2.4,58,0.00,CLR,,0.00,WeatherDisplay:10.37,2013-01-19 07:21:00,
2013-01-19 01:26:00,28.4,15.5,29.77,South,190,2.3,2.7,58,0.00,CLR,,0.00,WeatherDisplay:10.37,2013-01-19 07:26:00,
2013-01-19 01:31:00,28.2,15.3,29.77,South,190,0.0,2.1,58,0.00,CLR,,0.00,WeatherDisplay:10.37,2013-01-19 07:31:00,
2013-01-19 01:36:00,28.2,15.3,29.77,South,190,0.0,1.1,58,0.00,CLR,,0.00,WeatherDisplay:10.37,2013-01-19 07:36:00,
2013-01-19 01:41:00,28.6,15.7,29.77,South,190,0.0,0.5,58,0.00,CLR,,0.00,WeatherDisplay:10.37,2013-01-19 07:41:00,
2013-01-19 01:46:00,28.8,15.8,29.77,South,190,0.0,0.1,58,0.00,CLR,,0.00,WeatherDisplay:10.37,2013-01-19 07:46:00,
2013-01-19 01:52:00,28.8,16.2,29.77,South,190,0.0,0.0,59,0.00,CLR,,0.00,WeatherDisplay:10.37,2013-01-19 07:52:00,
2013-01-19 01:57:00,28.6,16.1,29.77,South,190,0.0,0.0,59,0.00,CLR,,0.00,WeatherDisplay:10.37,2013-01-19 07:57:00,
2013-01-19 02:02:00,28.4,15.5,29.77,South,190,0.0,0.0,58,0.00,CLR,,0.00,WeatherDisplay:10.37,2013-01-19 08:02:00,
2013-01-19 02:07:00,28.4,15.5,29.77,South,190,0.0,0.0,58,0.00,CLR,,0.00,WeatherDisplay:10.37,2013-01-19 08:07:00,
2013-01-19 02:13:00,28.4,15.5,29.77,South,190,0.0,0.0,58,0.00,CLR,,0.00,WeatherDisplay:10.37,2013-01-19 08:13:00,
2013-01-19 02:18:00,28.4,15.5,29.77,South,190,0.0,0.0,58,0.00,FEW,,0.00,WeatherDisplay:10.37,2013-01-19 08:18:00,
2013-01-19 02:23:00,28.4,15.5,29.77,South,190,0.0,0.0,58,0.00,FEW,,0.00,WeatherDisplay:10.37,2013-01-19 08:23:00,
2013-01-19 02:29:00,28.2,15.7,29.77,South,190,0.0,0.0,59,0.00,FEW,,0.00,WeatherDisplay:10.37,2013-01-19 08:29:00,
2013-01-19 02:34:00,28.4,15.9,29.77,South,190,0.0,0.0,59,0.00,FEW,,0.00,WeatherDisplay:10.37,2013-01-19 08:34:00,
2013-01-19 02:39:00,28.6,16.1,29.77,South,190,0.0,0.0,59,0.00,FEW,,0.00,WeatherDisplay:10.37,2013-01-19 08:39:00,
2013-01-19 02:44:00,28.6,16.1,29.77,South,190,0.0,0.0,59,0.00,FEW,,0.00,WeatherDisplay:10.37,2013-01-19 08:44:00,
2013-01-19 02:49:00,28.4,15.9,29.77,South,190,0.0,0.0,59,0.00,FEW,,0.00,WeatherDisplay:10.37,2013-01-19 08:49:00,
2013-01-19 02:54:00,28.2,15.7,29.77,South,190,0.0,0.0,59,0.00,FEW,,0.00,WeatherDisplay:10.37,2013-01-19 08:54:00,
2013-01-19 02:59:00,28.4,15.9,29.77,South,190,3.5,3.5,59,0.00,FEW,,0.00,WeatherDisplay:10.37,2013-01-19 08:59:00,
2013-01-19 03:04:00,28.4,15.9,29.77,South,190,1.1,1.1,59,0.00,FEW,,0.00,WeatherDisplay:10.37,2013-01-19 09:04:00,
2013-01-19 03:10:00,28.4,15.9,29.77,South,190,2.3,2.3,59,0.00,FEW,,0.00,WeatherDisplay:10.37,2013-01-19 09:10:00,
2013-01-19 03:15:00,28.4,15.9,29.77,South,190,3.5,3.5,59,0.00,BKN,,0.00,WeatherDisplay:10.37,2013-01-19 09:15:00,
2013-01-19 03:20:00,28.4,15.9,29.74,SSE,160,5.8,5.8,59,0.00,BKN,,0.00,WeatherDisplay:10.37,2013-01-19 09:20:00,
2013-01-19 03:25:00,28.4,15.9,29.74,SE,135,3.5,3.9,59,0.00,BKN,,0.00,WeatherDisplay:10.37,2013-01-19 09:25:00,
2013-01-19 03:31:00,28.4,16.3,29.74,SSE,165,5.8,5.8,60,0.00,BKN,,0.00,WeatherDisplay:10.37,2013-01-19 09:31:00,
2013-01-19 03:36:00,28.4,16.3,29.74,SSE,165,6.9,6.9,60,0.00,BKN,,0.00,WeatherDisplay:10.37,2013-01-19 09:36:00,
2013-01-19 03:41:00,28.6,16.4,29.74,South,170,5.8,5.8,60,0.00,BKN,,0.00,WeatherDisplay:10.37,2013-01-19 09:41:00,
2013-01-19 03:46:00,28.6,16.4,29.74,South,190,4.6,5.9,60,0.00,BKN,,0.00,WeatherDisplay:10.37,2013-01-19 09:46:00,
2013-01-19 03:51:00,28.6,16.4,29.74,SSE,165,4.6,5.3,60,0.00,BKN,,0.00,WeatherDisplay:10.37,2013-01-19 09:51:00,
2013-01-19 03:56:00,28.6,16.4,29.74,South,170,6.9,6.9,60,0.00,BKN,,0.00,WeatherDisplay:10.37,2013-01-19 09:56:00,
2013-01-19 04:01:00,28.6,16.4,29.74,South,185,3.5,4.9,60,0.00,BKN,,0.00,WeatherDisplay:10.37,2013-01-19 10:01:00,
2013-01-19 04:07:00,28.8,17.0,29.74,South,180,5.8,5.8,61,0.00,BKN,,0.00,WeatherDisplay:10.37,2013-01-19 10:07:00,
2013-01-19 04:12:00,29.1,17.3,29.74,South,170,6.9,6.9,61,0.00,BKN,,0.00,WeatherDisplay:10.37,2013-01-19 10:12:00,
2013-01-19 04:17:00,29.3,17.5,29.71,South,175,6.9,6.9,61,0.00,CLR,,0.00,WeatherDisplay:10.37,2013-01-19 10:17:00,
2013-01-19 04:23:00,29.5,18.1,29.71,SSE,165,6.9,6.9,62,0.00,CLR,,0.00,WeatherDisplay:10.37,2013-01-19 10:23:00,
2013-01-19 04:28:00,29.5,18.1,29.71,South,170,6.9,7.0,62,0.00,CLR,,0.00,WeatherDisplay:10.37,2013-01-19 10:28:00,
2013-01-19 04:33:00,29.7,18.2,29.71,South,185,5.8,6.8,62,0.00,CLR,,0.00,WeatherDisplay:10.37,2013-01-19 10:33:00,
2013-01-19 04:38:00,29.8,18.4,29.71,South,170,10.4,10.4,62,0.00,CLR,,0.00,WeatherDisplay:10.37,2013-01-19 10:38:00,
2013-01-19 04:44:00,30.2,19.1,29.71,South,170,9.2,9.2,63,0.00,CLR,,0.00,WeatherDisplay:10.37,2013-01-19 10:44:00,
2013-01-19 04:49:00,30.4,19.3,29.71,South,175,10.4,10.4,63,0.00,CLR,,0.00,WeatherDisplay:10.37,2013-01-19 10:49:00,
2013-01-19 04:54:00,30.2,19.1,29.71,SW,220,9.2,9.2,63,0.00,CLR,,0.00,WeatherDisplay:10.37,2013-01-19 10:54:00,
2013-01-19 04:59:00,30.6,19.5,29.74,SW,215,5.8,8.5,63,0.00,CLR,,0.00,WeatherDisplay:10.37,2013-01-19 10:59:00,
2013-01-19 05:04:00,30.4,19.3,29.74,SW,215,4.6,7.4,63,0.00,CLR,,0.00,WeatherDisplay:10.37,2013-01-19 11:04:00,
2013-01-19 05:09:00,30.2,18.7,29.74,SW,215,4.6,5.9,62,0.00,CLR,,0.00,WeatherDisplay:10.37,2013-01-19 11:09:00,
2013-01-19 05:48:00,27.0,15.7,29.71,South,190,3.5,3.5,62,0.00,CLR,,0.00,WeatherDisplay:10.37,2013-01-19 11:48:00,
2013-01-19 05:49:00,27.1,15.8,29.71,South,190,2.3,2.3,62,0.00,CLR,,0.00,WeatherDisplay:10.37,2013-01-19 11:49:00,
2013-01-19 05:50:00,27.1,15.8,29.71,South,190,2.3,2.3,62,0.00,CLR,,0.00,WeatherDisplay:10.37,2013-01-19 11:50:00,
2013-01-19 05:51:00,27.1,15.8,29.71,South,190,2.3,2.3,62,0.00,CLR,,0.00,WeatherDisplay:10.37,2013-01-19 11:51:00,
2013-01-19 05:52:00,27.1,15.8,29.68,South,185,4.6,4.6,62,0.00,CLR,,0.00,WeatherDisplay:10.37,2013-01-19 11:52:00,
2013-01-19 05:53:00,27.1,15.8,29.68,South,185,4.6,4.6,62,0.00,CLR,,0.00,WeatherDisplay:10.37,2013-01-19 11:53:00,
2013-01-19 05:54:00,27.1,15.8,29.68,South,185,4.6,4.6,62,0.00,CLR,,0.00,WeatherDisplay:10.37,2013-01-19 11:54:00,
2013-01-19 05:55:00,27.1,15.8,29.68,SSE,165,0.0,1.6,62,0.00,CLR,,0.00,WeatherDisplay:10.37,2013-01-19 11:55:00,
2013-01-19 05:56:00,27.1,15.8,29.68,SSE,165,0.0,1.6,62,0.00,CLR,,0.00,WeatherDisplay:10.37,2013-01-19 11:56:00,
2013-01-19 05:57:00,27.1,15.8,29.68,SSE,165,0.0,1.6,62,0.00,CLR,,0.00,WeatherDisplay:10.37,2013-01-19 11:57:00,
2013-01-19 05:58:00,27.1,16.2,29.68,SSE,165,0.0,1.6,63,0.00,CLR,,0.00,WeatherDisplay:10.37,2013-01-19 11:58:00,
2013-01-19 05:59:00,27.1,16.2,29.68,SSE,165,0.0,1.6,63,0.00,CLR,,0.00,WeatherDisplay:10.37,2013-01-19 11:59:00,
2013-01-19 06:00:00,27.1,16.2,29.68,South,171,1.0,5.0,63,0.00,CLR,,0.00,WeatherDisplay:10.37,2013-01-19 12:00:00,
2013-01-19 06:01:00,27.1,16.2,29.68,South,185,3.5,3.5,63,0.00,CLR,,0.00,WeatherDisplay:10.37,2013-01-19 12:01:00,
2013-01-19 06:02:00,27.1,16.2,29.68,South,185,3.5,3.5,63,0.00,CLR,,0.00,WeatherDisplay:10.37,2013-01-19 12:02:00,
2013-01-19 06:03:00,27.1,16.2,29.68,South,185,3.5,3.5,63,0.00,CLR,,0.00,WeatherDisplay:10.37,2013-01-19 12:03:00,
2013-01-19 06:04:00,27.1,16.2,29.68,South,190,0.0,2.1,63,0.00,CLR,,0.00,WeatherDisplay:10.37,2013-01-19 12:04:00,
2013-01-19 06:05:00,27.1,16.2,29.68,South,190,0.0,2.1,63,0.00,CLR,,0.00,WeatherDisplay:10.37,2013-01-19 12:05:00,
2013-01-19 06:06:00,27.1,16.2,29.68,South,190,0.0,2.1,63,0.00,CLR,,0.00,WeatherDisplay:10.37,2013-01-19 12:06:00,
2013-01-19 06:07:00,27.1,16.2,29.68,South,190,0.0,2.1,63,0.00,CLR,,0.00,WeatherDisplay:10.37,2013-01-19 12:07:00,
2013-01-19 06:08:00,27.1,16.2,29.68,South,190,0.0,1.7,63,0.00,CLR,,0.00,WeatherDisplay:10.37,2013-01-19 12:08:00,
2013-01-19 06:09:00,27.1,16.2,29.68,South,190,0.0,1.7,63,0.00,CLR,,0.00,WeatherDisplay:10.37,2013-01-19 12:09:00,
2013-01-19 06:10:00,27.1,16.2,29.71,SSW,200,0.0,1.3,63,0.00,CLR,,0.00,WeatherDisplay:10.37,2013-01-19 12:10:00,
2013-01-19 06:11:00,27.1,16.2,29.71,SSW,200,0.0,1.3,63,0.00,CLR,,0.00,WeatherDisplay:10.37,2013-01-19 12:11:00,
2013-01-19 06:12:00,27.1,16.2,29.71,SSW,200,0.0,1.3,63,0.00,CLR,,0.00,WeatherDisplay:10.37,2013-01-19 12:12:00,
2013-01-19 06:13:00,27.3,16.4,29.71,SSW,200,1.1,1.1,63,0.00,CLR,,0.00,WeatherDisplay:10.37,2013-01-19 12:13:00,
2013-01-19 06:14:00,27.3,16.4,29.71,SSW,200,1.1,1.1,63,0.00,CLR,,0.00,WeatherDisplay:10.37,2013-01-19 12:14:00,
2013-01-19 06:15:00,27.3,16.4,29.71,SSW,195,1.0,3.0,63,0.00,CLR,,0.00,WeatherDisplay:10.37,2013-01-19 12:15:00,
2013-01-19 06:16:00,27.7,17.1,29.71,SW,215,4.6,4.6,64,0.00,CLR,,0.00,WeatherDisplay:10.37,2013-01-19 12:16:00,
2013-01-19 06:17:00,27.7,17.1,29.71,SW,215,4.6,4.6,64,0.00,CLR,,0.00,WeatherDisplay:10.37,2013-01-19 12:17:00,
2013-01-19 06:18:00,27.7,17.1,29.71,SW,215,4.6,4.6,64,0.00,CLR,,0.00,WeatherDisplay:10.37,2013-01-19 12:18:00,
2013-01-19 06:19:00,27.9,17.6,29.71,SW,230,3.5,3.5,65,0.00,CLR,,0.00,WeatherDisplay:10.37,2013-01-19 12:19:00,
2013-01-19 06:23:00,27.9,17.6,29.71,SSW,205,2.3,2.3,65,0.00,CLR,,0.00,WeatherDisplay:10.37,2013-01-19 12:23:00,
2013-01-19 06:24:00,27.9,17.6,29.71,SSW,205,2.3,2.3,65,0.00,CLR,,0.00,WeatherDisplay:10.37,2013-01-19 12:24:00,
2013-01-19 07:06:00,27.1,16.2,29.68,South,190,0.0,1.7,63,0.00,CLR,,0.00,WeatherDisplay:10.37,2013-01-19 13:06:00,
2013-01-19 07:12:00,27.3,16.4,29.71,SSW,200,1.1,1.1,63,0.00,CLR,,0.00,WeatherDisplay:10.37,2013-01-19 13:12:00,
2013-01-19 07:18:00,27.9,17.6,29.71,SW,230,3.5,3.5,65,0.00,CLR,,0.00,WeatherDisplay:10.37,2013-01-19 13:18:00,
2013-01-19 07:24:00,27.9,17.6,29.71,SSW,205,2.3,2.3,65,0.00,CLR,,0.00,WeatherDisplay:10.37,2013-01-19 13:24:00,
2013-01-19 07:29:00,27.9,17.6,29.71,SSW,205,2.3,2.3,65,0.00,CLR,,0.00,WeatherDisplay:10.37,2013-01-19 13:29:00,
2013-01-19 07:34:00,28.0,17.8,29.71,South,190,0.0,2.3,65,0.00,CLR,,0.00,WeatherDisplay:10.37,2013-01-19 13:34:00,
2013-01-19 07:39:00,28.0,17.8,29.71,South,190,0.0,2.3,65,0.00,CLR,,0.00,WeatherDisplay:10.37,2013-01-19 13:39:00,
2013-01-19 07:44:00,28.0,17.8,29.71,SSW,195,0.0,0.5,65,0.00,CLR,,0.00,WeatherDisplay:10.37,2013-01-19 13:44:00,
2013-01-19 07:49:00,28.2,18.3,29.71,SSW,195,0.0,0.1,66,0.00,CLR,,0.00,WeatherDisplay:10.37,2013-01-19 13:49:00,
2013-01-19 07:54:00,28.2,18.3,29.71,SW,215,5.8,5.8,66,0.00,CLR,,0.00,WeatherDisplay:10.37,2013-01-19 13:54:00,
2013-01-19 07:59:00,28.6,18.7,29.71,SSW,205,6.9,6.9,66,0.00,CLR,,0.00,WeatherDisplay:10.37,2013-01-19 13:59:00,
2013-01-19 08:05:00,28.6,18.7,29.71,SSW,205,6.9,6.9,66,0.00,CLR,,0.00,WeatherDisplay:10.37,2013-01-19 14:05:00,
2013-01-19 08:10:00,28.9,19.3,29.71,SSW,210,6.9,6.9,67,0.00,CLR,,0.00,WeatherDisplay:10.37,2013-01-19 14:10:00,
2013-01-19 08:15:00,29.1,19.5,29.71,SW,225,10.4,10.4,67,0.00,FEW,,0.00,WeatherDisplay:10.37,2013-01-19 14:15:00,
2013-01-19 08:20:00,29.5,19.9,29.71,SW,215,9.2,9.2,67,0.00,FEW,,0.00,WeatherDisplay:10.37,2013-01-19 14:20:00,
2013-01-19 08:25:00,29.8,20.2,29.71,SW,215,9.2,9.2,67,0.00,FEW,,0.00,WeatherDisplay:10.37,2013-01-19 14:25:00,
2013-01-19 08:30:00,30.0,20.4,29.71,SW,215,10.4,10.4,67,0.00,FEW,,0.00,WeatherDisplay:10.37,2013-01-19 14:30:00,
2013-01-19 08:35:00,30.4,20.7,29.71,SW,215,5.8,8.7,67,0.00,FEW,,0.00,WeatherDisplay:10.37,2013-01-19 14:35:00,
2013-01-19 08:41:00,30.4,20.4,29.71,SW,215,6.9,8.2,66,0.00,FEW,,0.00,WeatherDisplay:10.37,2013-01-19 14:41:00,
2013-01-19 08:46:00,30.4,20.4,29.71,SW,215,6.9,8.2,66,0.00,FEW,,0.00,WeatherDisplay:10.37,2013-01-19 14:46:00,
2013-01-19 08:51:00,30.7,20.4,29.74,SW,215,11.5,11.5,65,0.00,FEW,,0.00,WeatherDisplay:10.37,2013-01-19 14:51:00,
2013-01-19 08:56:00,30.9,20.2,29.74,SSW,210,9.2,9.2,64,0.00,FEW,,0.00,WeatherDisplay:10.37,2013-01-19 14:56:00,
2013-01-19 09:01:00,31.1,20.3,29.74,SW,215,11.5,11.5,64,0.00,FEW,,0.00,WeatherDisplay:10.37,2013-01-19 15:01:00,
2013-01-19 09:06:00,31.6,20.5,29.74,SSW,205,10.4,10.4,63,0.00,FEW,,0.00,WeatherDisplay:10.37,2013-01-19 15:06:00,
2013-01-19 09:12:00,31.3,19.4,29.74,SW,215,10.4,10.6,61,0.00,FEW,,0.00,WeatherDisplay:10.37,2013-01-19 15:12:00,
2013-01-19 09:17:00,31.3,18.6,29.74,SW,215,10.4,11.2,59,0.00,BKN,,0.00,WeatherDisplay:10.37,2013-01-19 15:17:00,
2013-01-19 09:22:00,31.5,18.8,29.74,SW,225,11.5,11.5,59,0.00,BKN,,0.00,WeatherDisplay:10.37,2013-01-19 15:22:00,
2013-01-19 09:27:00,31.5,18.4,29.74,SW,225,11.5,11.5,58,0.00,BKN,,0.00,WeatherDisplay:10.37,2013-01-19 15:27:00,
2013-01-19 09:33:00,31.8,17.9,29.74,SSW,210,11.5,11.5,56,0.00,BKN,,0.00,WeatherDisplay:10.37,2013-01-19 15:33:00,
2013-01-19 09:38:00,31.8,17.9,29.74,SW,220,12.7,12.7,56,0.00,BKN,,0.00,WeatherDisplay:10.37,2013-01-19 15:38:00,
2013-01-19 09:43:00,32.2,18.2,29.74,SW,220,10.4,11.6,56,0.00,BKN,,0.00,WeatherDisplay:10.37,2013-01-19 15:43:00,
2013-01-19 09:48:00,32.4,18.0,29.74,SW,230,11.5,12.0,55,0.00,BKN,,0.00,WeatherDisplay:10.37,2013-01-19 15:48:00,
2013-01-19 09:54:00,32.7,17.5,29.74,SW,230,17.3,17.3,53,0.00,BKN,,0.00,WeatherDisplay:10.37,2013-01-19 15:54:00,
2013-01-19 09:59:00,32.9,17.6,29.74,SW,230,17.3,17.3,53,0.00,BKN,,0.00,WeatherDisplay:10.37,2013-01-19 15:59:00,
2013-01-19 10:04:00,33.1,17.3,29.74,SW,230,12.7,15.0,52,0.00,BKN,,0.00,WeatherDisplay:10.37,2013-01-19 16:04:00,
2013-01-19 10:09:00,33.3,17.1,29.74,SW,220,12.7,15.0,51,0.00,BKN,,0.00,WeatherDisplay:10.37,2013-01-19 16:09:00,
2013-01-19 10:14:00,33.4,17.2,29.74,SW,215,9.2,14.6,51,0.00,BKN,,0.00,WeatherDisplay:10.37,2013-01-19 16:14:00,
2013-01-19 10:20:00,33.6,16.9,29.74,SW,220,13.8,14.5,50,0.00,BKN,,0.00,WeatherDisplay:10.37,2013-01-19 16:20:00,
2013-01-19 10:25:00,34.2,17.0,29.74,SW,230,12.7,12.7,49,0.00,BKN,,0.00,WeatherDisplay:10.37,2013-01-19 16:25:00,
2013-01-19 10:30:00,34.3,17.1,29.74,WSW,250,10.4,11.7,49,0.00,BKN,,0.00,WeatherDisplay:10.37,2013-01-19 16:30:00,
2013-01-19 10:35:00,34.9,17.2,29.77,WSW,240,12.7,12.7,48,0.00,BKN,,0.00,WeatherDisplay:10.37,2013-01-19 16:35:00,
2013-01-19 10:40:00,34.9,17.2,29.77,WSW,240,12.7,12.7,48,0.00,BKN,,0.00,WeatherDisplay:10.37,2013-01-19 16:40:00,
2013-01-19 10:46:00,34.7,16.0,29.77,West,280,5.8,11.6,46,0.00,BKN,,0.00,WeatherDisplay:10.37,2013-01-19 16:46:00,
2013-01-19 10:51:00,35.1,16.3,29.77,WSW,250,10.4,11.4,46,0.00,BKN,,0.00,WeatherDisplay:10.37,2013-01-19 16:51:00,
2013-01-19 10:56:00,35.6,16.3,29.77,West,260,17.3,17.3,45,0.00,BKN,,0.00,WeatherDisplay:10.37,2013-01-19 16:56:00,
2013-01-19 11:01:00,35.8,16.5,29.77,WSW,255,16.1,16.1,45,0.00,BKN,,0.00,WeatherDisplay:10.37,2013-01-19 17:01:00,
2013-01-19 11:07:00,36.0,15.6,29.77,West,260,11.5,12.4,43,0.00,BKN,,0.00,WeatherDisplay:10.37,2013-01-19 17:07:00,
2013-01-19 11:12:00,36.9,15.9,29.77,West,280,20.7,20.7,42,0.00,BKN,,0.00,WeatherDisplay:10.37,2013-01-19 17:12:00,
2013-01-19 11:17:00,36.9,15.3,29.77,West,265,14.3,14.3,41,0.00,BKN,,0.00,WeatherDisplay:10.37,2013-01-19 17:17:00,
2013-01-19 11:22:00,37.0,16.0,29.74,West,265,13.8,13.9,42,0.00,BKN,,0.00,WeatherDisplay:10.37,2013-01-19 17:22:00,
2013-01-19 11:28:00,36.7,15.2,29.74,WSW,250,13.8,13.8,41,0.00,BKN,,0.00,WeatherDisplay:10.37,2013-01-19 17:28:00,
2013-01-19 11:33:00,37.2,16.2,29.74,West,275,9.2,12.5,42,0.00,BKN,,0.00,WeatherDisplay:10.37,2013-01-19 17:33:00,
2013-01-19 11:38:00,37.4,15.2,29.74,WSW,255,13.8,13.8,40,0.00,BKN,,0.00,WeatherDisplay:10.37,2013-01-19 17:38:00,
2013-01-19 11:43:00,37.6,15.4,29.74,WSW,255,12.7,12.7,40,0.00,BKN,,0.00,WeatherDisplay:10.37,2013-01-19 17:43:00,
2013-01-19 11:48:00,37.8,15.6,29.74,West,280,16.1,16.1,40,0.00,BKN,,0.00,WeatherDisplay:10.37,2013-01-19 17:48:00,
2013-01-19 11:53:00,37.9,15.1,29.74,WNW,290,15.0,15.0,39,0.00,BKN,,0.00,WeatherDisplay:10.37,2013-01-19 17:53:00,
2013-01-19 11:59:00,38.3,15.5,29.74,West,270,13.8,14.5,39,0.00,BKN,,0.00,WeatherDisplay:10.37,2013-01-19 17:59:00,
2013-01-19 12:04:00,38.1,15.3,29.74,West,275,11.5,14.5,39,0.00,BKN,,0.00,WeatherDisplay:10.37,2013-01-19 18:04:00,
2013-01-19 12:09:00,37.8,15.6,29.74,West,280,15.0,15.0,40,0.00,BKN,,0.00,WeatherDisplay:10.37,2013-01-19 18:09:00,
2013-01-19 12:14:00,37.4,15.2,29.74,West,260,17.3,17.3,40,0.00,BKN,,0.00,WeatherDisplay:10.37,2013-01-19 18:14:00,
2013-01-19 12:19:00,37.6,15.4,29.74,WSW,255,20.7,20.7,40,0.00,BKN,,0.00,WeatherDisplay:10.37,2013-01-19 18:19:00,
2013-01-19 12:25:00,37.4,15.2,29.74,WSW,255,15.0,17.7,40,0.00,BKN,,0.00,WeatherDisplay:10.37,2013-01-19 18:25:00,
2013-01-19 12:30:00,37.8,15.6,29.74,WSW,245,20.7,20.7,40,0.00,BKN,,0.00,WeatherDisplay:10.37,2013-01-19 18:30:00,
2013-01-19 12:35:00,37.6,15.4,29.74,WSW,250,21.9,21.9,40,0.00,BKN,,0.00,WeatherDisplay:10.37,2013-01-19 18:35:00,
2013-01-19 12:40:00,37.6,15.4,29.74,WSW,250,21.9,21.9,40,0.00,BKN,,0.00,WeatherDisplay:10.37,2013-01-19 18:40:00,
2013-01-19 12:46:00,37.9,16.3,29.74,SW,235,18.4,19.0,41,0.00,BKN,,0.00,WeatherDisplay:10.37,2013-01-19 18:46:00,
2013-01-19 12:52:00,38.3,16.1,29.74,SW,235,18.4,19.6,40,0.00,BKN,,0.00,WeatherDisplay:10.37,2013-01-19 18:52:00,
2013-01-19 12:58:00,38.1,15.9,29.74,WSW,240,18.4,19.3,40,0.00,BKN,,0.00,WeatherDisplay:10.37,2013-01-19 18:58:00,
2013-01-19 13:03:00,38.3,15.5,29.74,WSW,240,23.0,23.0,39,0.00,BKN,,0.00,WeatherDisplay:10.37,2013-01-19 19:03:00,
2013-01-19 13:09:00,38.1,15.3,29.74,WSW,240,13.8,18.9,39,0.00,BKN,,0.00,WeatherDisplay:10.37,2013-01-19 19:09:00,
2013-01-19 13:14:00,38.1,15.3,29.74,SW,235,18.4,18.4,39,0.00,BKN,,0.00,WeatherDisplay:10.37,2013-01-19 19:14:00,
2013-01-19 13:19:00,37.8,14.4,29.74,WSW,240,21.9,21.9,38,0.00,BKN,,0.00,WeatherDisplay:10.37,2013-01-19 19:19:00,
2013-01-19 13:24:00,37.8,15.0,29.74,WSW,250,19.6,19.6,39,0.00,BKN,,0.00,WeatherDisplay:10.37,2013-01-19 19:24:00,
2013-01-19 13:30:00,37.6,15.4,29.74,WSW,240,20.7,20.7,40,0.00,BKN,,0.00,WeatherDisplay:10.37,2013-01-19 19:30:00,
2013-01-19 13:37:00,37.4,15.2,29.74,WSW,240,21.9,21.9,40,0.00,BKN,,0.00,WeatherDisplay:10.37,2013-01-19 19:37:00,
2013-01-19 13:42:00,37.8,15.6,29.74,WSW,250,17.3,19.6,40,0.00,BKN,,0.00,WeatherDisplay:10.37,2013-01-19 19:42:00,
2013-01-19 13:47:00,37.9,15.1,29.74,WSW,255,15.3,18.3,39,0.00,BKN,,0.00,WeatherDisplay:10.37,2013-01-19 19:47:00,
2013-01-19 13:52:00,37.9,15.1,29.74,West,260,17.3,17.6,39,0.00,BKN,,0.00,WeatherDisplay:10.37,2013-01-19 19:52:00,
2013-01-19 13:58:00,38.1,14.7,29.74,WSW,250,19.6,19.6,38,0.00,BKN,,0.00,WeatherDisplay:10.37,2013-01-19 19:58:00,
2013-01-19 14:03:00,38.1,14.7,29.74,SW,235,27.6,27.6,38,0.00,OVC,,0.00,WeatherDisplay:10.37,2013-01-19 20:03:00,
2013-01-19 14:08:00,37.0,14.9,29.74,WSW,245,23.0,23.0,40,0.00,OVC,,0.00,WeatherDisplay:10.37,2013-01-19 20:08:00,
2013-01-19 14:14:00,37.0,14.9,29.77,SW,235,26.5,26.5,40,0.00,OVC,,0.00,WeatherDisplay:10.37,2013-01-19 20:14:00,
2013-01-19 14:19:00,34.5,14.8,29.77,West,260,20.7,24.6,44,0.00,OVC,,0.00,WeatherDisplay:10.37,2013-01-19 20:19:00,
2013-01-19 14:24:00,33.3,13.7,29.77,West,260,17.3,22.4,44,0.00,OVC,,0.00,WeatherDisplay:10.37,2013-01-19 20:24:00,
2013-01-19 14:30:00,32.0,9.2,29.77,WSW,250,29.9,29.9,38,0.00,OVC,,0.00,WeatherDisplay:10.37,2013-01-19 20:30:00,
2013-01-19 14:35:00,30.0,1.5,29.77,SW,235,28.8,28.8,29,0.00,OVC,,0.00,WeatherDisplay:10.37,2013-01-19 20:35:00,
2013-01-19 14:40:00,29.5,-1.3,29.80,SW,235,28.8,28.8,26,0.00,OVC,,0.00,WeatherDisplay:10.37,2013-01-19 20:40:00,
2013-01-19 14:46:00,28.6,-4.6,29.80,West,260,28.8,28.8,23,0.00,OVC,,0.00,WeatherDisplay:10.37,2013-01-19 20:46:00,
2013-01-19 14:52:00,26.6,-9.2,29.80,WSW,245,25.3,27.8,20,0.00,OVC,,0.00,WeatherDisplay:10.37,2013-01-19 20:52:00,
2013-01-19 14:58:00,26.1,-9.6,29.80,WSW,241,28.0,31.0,20,0.00,OVC,,0.00,WeatherDisplay:10.37,2013-01-19 20:58:00,
2013-01-19 15:03:00,25.0,-9.5,29.80,West,260,27.6,27.6,21,0.00,OVC,,0.00,WeatherDisplay:10.37,2013-01-19 21:03:00,
2013-01-19 15:08:00,23.4,-10.9,29.83,WSW,250,31.1,31.1,21,0.00,OVC,,0.00,WeatherDisplay:10.37,2013-01-19 21:08:00,
2013-01-19 15:14:00,22.8,-6.2,29.83,West,265,19.6,26.7,27,0.00,OVC,,0.00,WeatherDisplay:10.37,2013-01-19 21:14:00,
2013-01-19 15:19:00,22.8,-6.2,29.83,WSW,245,27.6,27.6,27,0.00,OVC,,0.00,WeatherDisplay:10.37,2013-01-19 21:19:00,
2013-01-19 15:24:00,20.8,-8.0,29.85,WSW,245,26.5,26.5,27,0.00,OVC,,0.00,WeatherDisplay:10.37,2013-01-19 21:24:00,
2013-01-19 15:29:00,20.5,-7.5,29.85,WSW,240,20.7,24.8,28,0.00,OVC,,0.00,WeatherDisplay:10.37,2013-01-19 21:29:00,
2013-01-19 15:35:00,20.1,-7.1,29.85,West,275,17.3,24.8,29,0.00,OVC,,0.00,WeatherDisplay:10.37,2013-01-19 21:35:00,
2013-01-19 15:42:00,19.2,-10.1,29.85,West,275,24.2,24.7,26,0.00,OVC,,0.00,WeatherDisplay:10.37,2013-01-19 21:42:00,
2013-01-19 15:47:00,18.7,-11.4,29.88,WSW,250,28.8,28.8,25,0.00,OVC,,0.00,WeatherDisplay:10.37,2013-01-19 21:47:00,
2013-01-19 15:52:00,17.8,-15.6,29.88,West,275,26.5,26.5,21,0.00,OVC,,0.00,WeatherDisplay:10.37,2013-01-19 21:52:00,
2013-01-19 15:57:00,17.6,-16.8,29.88,WSW,255,27.6,28.3,20,0.00,OVC,,0.00,WeatherDisplay:10.37,2013-01-19 21:57:00,
2013-01-19 16:02:00,16.9,-17.4,29.88,West,275,23.0,26.2,20,0.00,OVC,,0.00,WeatherDisplay:10.37,2013-01-19 22:02:00,
2013-01-19 16:08:00,16.9,-17.4,29.91,West,270,27.6,27.6,20,0.00,OVC,,0.00,WeatherDisplay:10.37,2013-01-19 22:08:00,
2013-01-19 16:13:00,16.0,-18.1,29.91,WSW,245,27.6,27.6,20,0.00,OVC,,0.00,WeatherDisplay:10.37,2013-01-19 22:13:00,
2013-01-19 16:18:00,16.0,-18.1,29.91,West,260,21.9,25.6,20,0.00,CLR,,0.00,WeatherDisplay:10.37,2013-01-19 22:18:00,
2013-01-19 16:23:00,15.8,-18.3,29.91,WSW,250,26.6,26.6,20,0.00,CLR,,0.00,WeatherDisplay:10.37,2013-01-19 22:23:00,
2013-01-19 16:28:00,15.4,-14.2,29.91,West,270,25.3,25.3,25,0.00,CLR,,0.00,WeatherDisplay:10.37,2013-01-19 22:28:00,
2013-01-19 16:34:00,15.3,-12.1,29.91,West,275,24.2,24.8,28,0.00,CLR,,0.00,WeatherDisplay:10.37,2013-01-19 22:34:00,
2013-01-19 16:39:00,15.1,-12.2,29.91,West,270,21.9,24.3,28,0.00,CLR,,0.00,WeatherDisplay:10.37,2013-01-19 22:39:00,
2013-01-19 16:44:00,14.7,-14.0,29.94,WSW,240,24.2,24.2,26,0.00,CLR,,0.00,WeatherDisplay:10.37,2013-01-19 22:44:00,
2013-01-19 16:49:00,14.2,-16.9,29.94,WSW,250,25.3,25.3,23,0.00,CLR,,0.00,WeatherDisplay:10.37,2013-01-19 22:49:00,
2013-01-19 16:55:00,14.0,-17.1,29.94,WSW,250,24.2,24.2,23,0.00,CLR,,0.00,WeatherDisplay:10.37,2013-01-19 22:55:00,
2013-01-19 17:00:00,14.0,-17.1,29.94,West,270,23.0,25.4,23,0.00,CLR,,0.00,WeatherDisplay:10.37,2013-01-19 23:00:00,
2013-01-19 17:06:00,12.9,-20.7,29.97,WSW,250,23.0,26.2,20,0.00,CLR,,0.00,WeatherDisplay:10.37,2013-01-19 23:06:00,
2013-01-19 17:12:00,12.4,-16.8,29.97,West,275,21.9,25.8,25,0.00,CLR,,0.00,WeatherDisplay:10.37,2013-01-19 23:12:00,
2013-01-19 17:17:00,11.1,-10.7,29.97,West,275,29.4,29.4,36,0.00,BKN,,0.00,WeatherDisplay:10.37,2013-01-19 23:17:00,
2013-01-19 17:22:00,11.1,-12.4,29.97,West,275,27.6,27.6,33,0.00,BKN,,0.00,WeatherDisplay:10.37,2013-01-19 23:22:00,
2013-01-19 17:28:00,11.3,-14.9,29.97,West,275,21.9,24.5,29,0.00,BKN,,0.00,WeatherDisplay:10.37,2013-01-19 23:28:00,
2013-01-19 17:33:00,10.9,-22.4,29.97,West,270,27.6,27.6,20,0.00,BKN,,0.00,WeatherDisplay:10.37,2013-01-19 23:33:00,
2013-01-19 17:38:00,10.9,-16.6,29.97,West,270,23.0,24.6,27,0.00,BKN,,0.00,WeatherDisplay:10.37,2013-01-19 23:38:00,
2013-01-19 17:43:00,10.0,-12.2,30.00,West,267,23.0,28.0,35,0.00,BKN,,0.00,WeatherDisplay:10.37,2013-01-19 23:43:00,
2013-01-19 17:48:00,9.9,-14.8,30.00,WNW,290,19.6,21.6,31,0.00,-SN,,0.00,WeatherDisplay:10.37,2013-01-19 23:48:00,
2013-01-19 17:53:00,10.0,-18.9,30.00,WNW,290,25.3,25.3,25,0.00,-SN,,0.00,WeatherDisplay:10.37,2013-01-19 23:53:00,
2013-01-19 17:58:00,10.0,-15.3,30.00,WNW,300,19.6,21.9,30,0.00,-SN,,0.00,WeatherDisplay:10.37,2013-01-19 23:58:00,
2013-01-19 18:05:00,9.0,-15.6,30.00,WSW,255,23.0,23.0,31,0.00,-SN,,0.00,WeatherDisplay:10.37,2013-01-20 00:05:00,
2013-01-19 18:10:00,8.6,-15.9,30.03,WNW,300,24.2,24.2,31,0.00,-SN,,0.00,WeatherDisplay:10.37,2013-01-20 00:10:00,
2013-01-19 18:15:00,8.1,-24.8,30.03,West,275,23.0,23.0,20,0.00,BKN,,0.00,WeatherDisplay:10.37,2013-01-20 00:15:00,
2013-01-19 18:21:00,7.7,-25.1,30.03,WNW,295,20.7,23.6,20,0.00,BKN,,0.00,WeatherDisplay:10.37,2013-01-20 00:21:00,
2013-01-19 18:25:00,7.5,-25.3,30.03,West,280,23.0,24.6,20,0.00,BKN,,0.00,WeatherDisplay:10.37,2013-01-20 00:25:00,
2013-01-19 18:31:00,7.3,-25.4,30.03,WNW,290,23.0,24.4,20,0.00,BKN,,0.00,WeatherDisplay:10.37,2013-01-20 00:31:00,
2013-01-19 18:37:00,7.2,-25.6,30.06,West,270,24.2,24.2,20,0.00,BKN,,0.00,WeatherDisplay:10.37,2013-01-20 00:37:00,
2013-01-19 18:42:00,6.8,-25.9,30.06,West,280,24.2,24.2,20,0.00,BKN,,0.00,WeatherDisplay:10.37,2013-01-20 00:42:00,
2013-01-19 18:48:00,6.3,-26.3,30.06,NW,305,26.5,26.5,20,0.00,BKN,,0.00,WeatherDisplay:10.37,2013-01-20 00:48:00,
2013-01-19 18:54:00,6.1,-26.5,30.06,NW,305,29.9,29.9,20,0.00,BKN,,0.00,WeatherDisplay:10.37,2013-01-20 00:54:00,
2013-01-19 18:59:00,5.9,-26.7,30.06,WNW,285,29.9,29.9,20,0.00,BKN,,0.00,WeatherDisplay:10.37,2013-01-20 00:59:00,
2013-01-19 19:05:00,5.5,-27.0,30.09,WNW,285,29.9,29.9,20,0.00,BKN,,0.00,WeatherDisplay:10.37,2013-01-20 01:05:00,
2013-01-19 19:10:00,5.4,-27.1,30.09,West,270,23.0,27.5,20,0.00,BKN,,0.00,WeatherDisplay:10.37,2013-01-20 01:10:00,
2013-01-19 19:15:00,5.4,-27.1,30.09,NW,315,24.2,28.1,20,0.00,OVC,,0.00,WeatherDisplay:10.37,2013-01-20 01:15:00,
2013-01-19 19:20:00,5.4,-27.1,30.09,NW,315,25.3,26.9,20,0.00,OVC,,0.00,WeatherDisplay:10.37,2013-01-20 01:20:00,
2013-01-19 19:25:00,5.4,-27.1,30.09,NW,305,25.3,26.2,20,0.00,OVC,,0.00,WeatherDisplay:10.37,2013-01-20 01:25:00,
2013-01-19 19:31:00,3.7,-28.5,30.09,NW,310,21.9,25.0,20,0.00,OVC,,0.00,WeatherDisplay:10.37,2013-01-20 01:31:00,
2013-01-19 19:36:00,3.6,-28.6,30.09,NW,305,18.4,23.2,20,0.00,OVC,,0.00,WeatherDisplay:10.37,2013-01-20 01:36:00,
2013-01-19 19:41:00,3.2,-28.9,30.12,WNW,300,28.8,28.8,20,0.00,OVC,,0.00,WeatherDisplay:10.37,2013-01-20 01:41:00,
2013-01-19 19:47:00,3.0,-29.1,30.12,WNW,285,19.6,22.6,20,0.00,OVC,,0.00,WeatherDisplay:10.37,2013-01-20 01:47:00,
2013-01-19 19:52:00,2.8,-29.2,30.12,NW,305,27.6,27.6,20,0.00,OVC,,0.00,WeatherDisplay:10.37,2013-01-20 01:52:00,
2013-01-19 19:58:00,2.5,-29.6,30.12,WNW,295,20.7,23.3,20,0.00,OVC,,0.00,WeatherDisplay:10.37,2013-01-20 01:58:00,
2013-01-19 20:03:00,2.3,-29.7,30.12,NW,315,26.5,26.5,20,0.00,OVC,,0.00,WeatherDisplay:10.37,2013-01-20 02:03:00,
2013-01-19 20:08:00,2.3,-29.7,30.12,NW,320,20.7,22.5,20,0.00,OVC,,0.00,WeatherDisplay:10.37,2013-01-20 02:08:00,
2013-01-19 20:13:00,2.1,-29.9,30.12,NW,313,21.0,27.0,20,0.00,OVC,,0.00,WeatherDisplay:10.37,2013-01-20 02:13:00,
2013-01-19 20:18:00,1.8,-30.2,30.15,WNW,295,25.3,25.3,20,0.00,BKN,,0.00,WeatherDisplay:10.37,2013-01-20 02:18:00,
2013-01-19 20:23:00,1.6,-30.3,30.15,NW,305,25.3,25.3,20,0.00,BKN,,0.00,WeatherDisplay:10.37,2013-01-20 02:23:00,
2013-01-19 20:29:00,1.8,-30.2,30.15,WNW,300,13.8,23.0,20,0.00,BKN,,0.00,WeatherDisplay:10.37,2013-01-20 02:29:00,
2013-01-19 20:34:00,1.6,-30.3,30.15,WNW,285,12.7,19.9,20,0.00,BKN,,0.00,WeatherDisplay:10.37,2013-01-20 02:34:00,
2013-01-19 20:40:00,1.6,-30.3,30.15,WNW,285,19.6,19.6,20,0.00,BKN,,0.00,WeatherDisplay:10.37,2013-01-20 02:40:00,
2013-01-19 20:45:00,1.4,-30.5,30.15,WNW,295,16.1,16.7,20,0.00,BKN,,0.00,WeatherDisplay:10.37,2013-01-20 02:45:00,
2013-01-19 20:50:00,1.4,-30.5,30.15,WNW,290,16.1,16.8,20,0.00,BKN,,0.00,WeatherDisplay:10.37,2013-01-20 02:50:00,
2013-01-19 20:56:00,1.2,-30.6,30.18,WNW,285,19.6,19.6,20,0.00,BKN,,0.00,WeatherDisplay:10.37,2013-01-20 02:56:00,
2013-01-19 21:02:00,1.2,-30.6,30.18,WNW,285,20.7,20.7,20,0.00,BKN,,0.00,WeatherDisplay:10.37,2013-01-20 03:02:00,
2013-01-19 21:07:00,0.9,-30.9,30.18,WNW,290,17.3,18.2,20,0.00,BKN,,0.00,WeatherDisplay:10.37,2013-01-20 03:07:00,
2013-01-19 21:12:00,1.0,-30.8,30.18,WNW,288,20.0,25.0,20,0.00,BKN,,0.00,WeatherDisplay:10.37,2013-01-20 03:12:00,
2013-01-19 21:17:00,1.0,-30.8,30.18,WNW,290,20.7,20.7,20,0.00,OVC,,0.00,WeatherDisplay:10.37,2013-01-20 03:17:00,
2013-01-19 21:23:00,0.9,-30.9,30.18,WNW,290,19.6,19.8,20,0.00,OVC,,0.00,WeatherDisplay:10.37,2013-01-20 03:23:00,
2013-01-19 21:28:00,0.9,-30.9,30.18,WNW,290,19.6,19.6,20,0.00,OVC,,0.00,WeatherDisplay:10.37,2013-01-20 03:28:00,
2013-01-19 21:34:00,0.9,-30.9,30.18,West,280,23.0,23.0,20,0.00,OVC,,0.00,WeatherDisplay:10.37,2013-01-20 03:34:00,
2013-01-19 21:39:00,0.7,-31.1,30.18,NW,305,18.4,20.4,20,0.00,OVC,,0.00,WeatherDisplay:10.37,2013-01-20 03:39:00,
2013-01-19 21:44:00,0.7,-31.1,30.18,WNW,290,20.7,20.7,20,0.00,OVC,,0.00,WeatherDisplay:10.37,2013-01-20 03:44:00,
2013-01-19 21:49:00,0.5,-31.2,30.18,WNW,295,9.2,18.2,20,0.00,OVC,,0.00,WeatherDisplay:10.37,2013-01-20 03:49:00,
2013-01-19 21:55:00,0.5,-31.2,30.18,WNW,295,20.7,20.7,20,0.00,OVC,,0.00,WeatherDisplay:10.37,2013-01-20 03:55:00,
2013-01-19 22:00:00,0.5,-31.2,30.18,WNW,295,20.7,20.7,20,0.00,OVC,,0.00,WeatherDisplay:10.37,2013-01-20 04:00:00,
2013-01-19 22:02:00,-0.6,-32.2,30.21,WNW,295,11.5,15.2,20,0.00,OVC,,0.00,WeatherDisplay:10.37,2013-01-20 04:02:00,
2013-01-19 22:03:00,-0.6,-32.2,30.21,WNW,295,11.5,15.2,20,0.00,OVC,,0.00,WeatherDisplay:10.37,2013-01-20 04:03:00,
2013-01-19 22:04:00,-0.8,-32.3,30.21,WNW,295,11.5,15.1,20,0.00,OVC,,0.00,WeatherDisplay:10.37,2013-01-20 04:04:00,
2013-01-19 22:05:00,0.1,-31.5,30.21,WNW,290,13.8,17.5,20,0.00,OVC,,0.00,WeatherDisplay:10.37,2013-01-20 04:05:00,
2013-01-19 22:06:00,-0.8,-32.3,30.21,WNW,295,11.5,15.1,20,0.00,OVC,,0.00,WeatherDisplay:10.37,2013-01-20 04:06:00,
2013-01-19 22:07:00,-0.8,-32.3,30.21,WNW,295,11.5,15.1,20,0.00,OVC,,0.00,WeatherDisplay:10.37,2013-01-20 04:07:00,
2013-01-19 22:08:00,-0.9,-32.5,30.21,WNW,295,11.5,14.5,20,0.00,OVC,,0.00,WeatherDisplay:10.37,2013-01-20 04:08:00,
2013-01-19 22:09:00,-0.9,-32.5,30.21,WNW,295,11.5,14.5,20,0.00,OVC,,0.00,WeatherDisplay:10.37,2013-01-20 04:09:00,
2013-01-19 22:10:00,-0.8,-32.3,30.21,WNW,295,13.9,13.9,20,0.00,OVC,,0.00,WeatherDisplay:10.37,2013-01-20 04:10:00,
2013-01-19 22:11:00,0.1,-31.5,30.21,West,270,11.5,18.1,20,0.00,OVC,,0.00,WeatherDisplay:10.37,2013-01-20 04:11:00,
2013-01-19 22:12:00,-0.8,-32.3,30.21,WNW,295,13.8,13.8,20,0.00,OVC,,0.00,WeatherDisplay:10.37,2013-01-20 04:12:00,
2013-01-19 22:13:00,-0.9,-32.5,30.21,WNW,290,17.4,17.4,20,0.00,OVC,,0.00,WeatherDisplay:10.37,2013-01-20 04:13:00,
2013-01-19 22:14:00,-0.9,-32.5,30.21,WNW,290,17.3,17.3,20,0.00,OVC,,0.00,WeatherDisplay:10.37,2013-01-20 04:14:00,
2013-01-19 22:15:00,-0.9,-32.5,30.21,WNW,293,14.0,17.0,20,0.00,OVC,,0.00,WeatherDisplay:10.37,2013-01-20 04:15:00,
2013-01-19 22:16:00,-1.1,-32.6,30.21,NW,310,17.4,17.4,20,0.00,OVC,,0.00,WeatherDisplay:10.37,2013-01-20 04:16:00,
2013-01-19 22:17:00,0.1,-31.5,30.21,West,275,16.1,16.7,20,0.00,OVC,,0.00,WeatherDisplay:10.37,2013-01-20 04:17:00,
2013-01-19 22:18:00,-1.1,-32.6,30.21,NW,310,16.1,16.1,20,0.00,OVC,,0.00,WeatherDisplay:10.37,2013-01-20 04:18:00,
2013-01-19 22:19:00,-1.1,-32.6,30.21,NW,310,16.1,16.1,20,0.00,OVC,,0.00,WeatherDisplay:10.37,2013-01-20 04:19:00,
2013-01-19 22:20:00,-1.1,-32.6,30.21,NW,310,17.3,17.3,20,0.00,OVC,,0.00,WeatherDisplay:10.37,2013-01-20 04:20:00,
2013-01-19 22:21:00,-1.1,-32.6,30.21,NW,310,17.3,17.3,20,0.00,OVC,,0.00,WeatherDisplay:10.37,2013-01-20 04:21:00,
2013-01-19 22:22:00,0.1,-31.5,30.21,West,280,24.2,24.2,20,0.00,OVC,,0.00,WeatherDisplay:10.37,2013-01-20 04:22:00,
2013-01-19 22:23:00,-1.1,-32.6,30.21,WNW,295,17.3,17.3,20,0.00,OVC,,0.00,WeatherDisplay:10.37,2013-01-20 04:23:00,
2013-01-19 22:24:00,-1.1,-32.6,30.21,WNW,295,17.3,17.3,20,0.00,OVC,,0.00,WeatherDisplay:10.37,2013-01-20 04:24:00,
2013-01-19 22:25:00,-1.3,-32.8,30.21,WNW,285,18.4,18.4,20,0.00,OVC,,0.00,WeatherDisplay:10.37,2013-01-20 04:25:00,
2013-01-19 22:26:00,-1.3,-32.8,30.21,WNW,285,18.4,18.4,20,0.00,OVC,,0.00,WeatherDisplay:10.37,2013-01-20 04:26:00,
2013-01-19 22:27:00,0.1,-31.5,30.24,WSW,250,20.7,20.7,20,0.00,OVC,,0.00,WeatherDisplay:10.37,2013-01-20 04:27:00,
2013-01-19 22:28:00,-1.3,-32.8,30.21,WNW,300,16.1,16.4,20,0.00,OVC,,0.00,WeatherDisplay:10.37,2013-01-20 04:28:00,
2013-01-19 22:29:00,-1.3,-32.8,30.21,WNW,300,16.1,16.4,20,0.00,OVC,,0.00,WeatherDisplay:10.37,2013-01-20 04:29:00,
2013-01-19 22:30:00,-1.3,-32.8,30.21,WNW,300,16.1,16.1,20,0.00,OVC,,0.00,WeatherDisplay:10.37,2013-01-20 04:30:00,
2013-01-19 22:31:00,-1.3,-32.8,30.21,NW,305,15.0,16.8,20,0.00,BKN,,0.00,WeatherDisplay:10.37,2013-01-20 04:31:00,
2013-01-19 22:32:00,0.1,-31.5,30.24,West,260,11.5,17.0,20,0.00,OVC,,0.00,WeatherDisplay:10.37,2013-01-20 04:32:00,
2013-01-19 22:37:00,-0.2,-31.8,30.24,West,260,11.5,16.4,20,0.00,OVC,,0.00,WeatherDisplay:10.37,2013-01-20 04:37:00,
2013-01-19 22:42:00,-0.4,-32.0,30.21,WNW,295,13.8,14.8,20,0.00,OVC,,0.00,WeatherDisplay:10.37,2013-01-20 04:42:00,
2013-01-19 22:48:00,-0.6,-32.2,30.21,West,280,17.3,17.3,20,0.00,OVC,,0.00,WeatherDisplay:10.37,2013-01-20 04:48:00,
2013-01-19 22:53:00,-0.6,-32.2,30.21,West,280,16.1,16.1,20,0.00,OVC,,0.00,WeatherDisplay:10.37,2013-01-20 04:53:00,
2013-01-19 22:59:00,-0.6,-32.2,30.21,WNW,295,13.9,15.2,20,0.00,OVC,,0.00,WeatherDisplay:10.37,2013-01-20 04:59:00,
2013-01-19 23:22:00,-1.1,-32.6,30.21,WNW,295,17.3,17.3,20,0.00,OVC,,0.00,WeatherDisplay:10.37,2013-01-20 05:22:00,
2013-01-19 23:27:00,-1.3,-32.8,30.21,WNW,300,16.1,16.4,20,0.00,OVC,,0.00,WeatherDisplay:10.37,2013-01-20 05:27:00,
2013-01-19 23:32:00,-1.5,-32.9,30.21,NW,305,15.0,16.6,20,0.00,BKN,,0.00,WeatherDisplay:10.37,2013-01-20 05:32:00,
2013-01-19 23:37:00,-1.5,-32.9,30.21,WNW,300,18.4,18.4,20,0.00,BKN,,0.00,WeatherDisplay:10.37,2013-01-20 05:37:00,
2013-01-19 23:43:00,-1.7,-33.1,30.21,WNW,295,17.3,17.3,20,0.00,BKN,,0.00,WeatherDisplay:10.37,2013-01-20 05:43:00,
2013-01-19 23:48:00,-1.5,-32.9,30.21,WNW,295,9.2,14.9,20,0.00,BKN,,0.00,WeatherDisplay:10.37,2013-01-20 05:48:00,
2013-01-19 23:53:00,-1.7,-33.1,30.21,WNW,285,13.8,14.2,20,0.00,BKN,,0.00,WeatherDisplay:10.37,2013-01-20 05:53:00,
2013-01-19 23:58:00,-1.7,-33.1,30.21,WNW,285,13.8,13.8,20,0.00,BKN,,0.00,WeatherDisplay:10.37,2013-01-20 05:58:00,